COSMOS 1275 DEB, 12723

Orbit data source: Space-Track

COSMOS 1275 DEB, 12723 is space debris in LEO originally from a launch on Thu, 04 Jun 1981 UTC launched from the Plesetsk Missile And Space Complex (PKMTR). Debris objects in space refer to the collection of defunct objects orbiting the Earth. Examples of debris include non-operational satellites, rocket bodies, and fragments generated from explosions, collisions, or faulty payload assembly.

Loading next visibility...
Identifier
12723, 1981-053BQ
Orbit
LEO
Country
Flag of CISCIS
Related business
Manufacturer
Unknown
Mission
Spacecraft
Bus & Motor
Unknown
Mass
Unknown
Launch date (UTC)
1981-06-04 (45 years ago)
Launch vehicle
Unknown
Launch site
Plesetsk Missile And Space Complex (PKMTR)
Object type
Payload
Rocket body
Debris
Shape & HBR
Unknown shape, 0.1 m
Radar Cross Section
Medium (>0.1 m² and <1 m²)

Expand to show TLE details & history
Last TLE update: 2 days ago

TLE from 2 days ago
0 COSMOS 1275 DEB
1 12723U 81053BQ  26171.02401811  .00012131  00000-0  15830-2 0  9993
2 12723  82.9340 194.0883 0003716 124.1499 236.0068 14.80438039312194
Epoch: 2026-06-20T00:34Z
TLE epoch observation values (Epoch: 2026-06-20T00:34:35.164Z)
Latitude
-0.00007°
Longitude
-82.80281°
Altitude
632.444 km
Speed
7.541 km/s
True Right ascension
12h 56m 21s
True Declination
0° 00' 00"
Sunlit
Object was in daylight at epoch
Visualization orbit readout
Latitude
Unknown
Longitude
Unknown
Altitude
Unknown
Speed
Unknown
Apparent Right ascension
Unknown
Apparent Declination
Unknown
Sunlit
N/A
Visualization observer readout
Local Sidereal Time
02:46:09
Azimuth
Unknown
Elevation
Unknown
Doppler factor
Unknown
Orbital elements
Apogee altitude
627.549 km
Perigee altitude
622.344 km
Semi-major axis
7,003.084 km
Eccentricity
0.00037
Inclination
82.934°
RAAN
194.0883°
Arg. of periapsis
124.1499°
True anomaly
235.9715°
Mean anomaly
236.0068°
Eccentric anomaly
235.98915°
Mean motion
3.70347 °/min
Orbital period
97.21 mins
BSTAR
0.001583
Loading maneuver chart data...
Computing Atmospheric mass density...

Documentation

Showing up to 5 results
|